Mankato, MN

2:49 PM CST on December 11, 2019 (GMT -0600)
Mankato Regional

Weather History for KMKT - September, 2019

Change the Weather History Date:

Saturday, September 21, 2019

  Actual Average Record
Temperature  
Mean Temperature 76 °F -  
Max Temperature 81 °F 66 °F 91 °F (2005)
Min Temperature 66 °F 47 °F 33 °F (1999)
Cooling Degree Days 11    
Growing Degree Days 26 (Base 50)    
Moisture  
Dew Point 70 °F    
Average Humidity 87    
Maximum Humidity 100    
Minimum Humidity 74    
Precipitation  
Precipitation 0.02 in - - ()
Sea Level Pressure  
Sea Level Pressure 29.80 in    
Wind  
Wind Speed 11 mph ()    
Max Wind Speed 21 mph    
Max Gust Speed 30 mph    
Visibility 10.0 miles    
Events Rain , Thunderstorm    
Averages and records for this station are not official NWS values.
T = Trace of Precipitation, MM = Missing Value Source: Averaged Metar Reports

Daily Weather History Graph

Daily Weather History Graph

Search for Another Location

Airport or City:

Astronomy

Sep. 21, 2019 Rise Set
Actual Time 7:01 AM CDT 7:15 PM CDT
Civil Twilight 6:32 AM CDT 7:44 PM CDT
Nautical Twilight 5:58 AM CDT 8:18 PM CDT
Astronomical Twilight 5:23 AM CDT 8:52 PM CDT
Moon 11:39 PM CDT (9/21) 2:22 PM CDT (9/21)
Length of Visible Light 13h 11m
Length of Day
12h 13m
Waning Gibbous, 54% of the Moon is Illuminated
Sep 21
Waning Gibbous
Sep 21
Last Quarter
Sep 28
New
Oct 5
First Quarter
Oct 13
Full

Hourly Weather History & Observations

Time (CDT) Temp. Heat Index Dew Point Humidity Pressure Visibility Wind Dir Wind Speed Gust Speed Precip Events Conditions
12:56 AM 75.0 °F - 70.0 °F 84% 29.87 in 10.0 mi SSE 15.0 mph 21.9 mph N/A   Clear
1:56 AM 73.0 °F - 69.1 °F 87% 29.87 in 10.0 mi SSE 11.5 mph - N/A   Partly Cloudy
2:56 AM 73.0 °F - 69.1 °F 87% 29.86 in 10.0 mi South 11.5 mph - N/A   Overcast
3:56 AM 72.0 °F - 70.0 °F 93% 29.83 in 9.0 mi SSE 12.7 mph - 0.00 in Rain Light Rain
4:09 AM 71.6 °F - 69.8 °F 94% 29.85 in 10.0 mi SSE 9.2 mph 16.1 mph 0.00 in   Overcast
4:29 AM 71.6 °F - 69.8 °F 94% 29.84 in 10.0 mi South 8.1 mph - 0.00 in   Overcast
4:56 AM 72.0 °F - 69.1 °F 91% 29.82 in 10.0 mi South 10.4 mph - 0.00 in   Overcast
5:18 AM 71.6 °F - 69.8 °F 94% 29.83 in 10.0 mi South 10.4 mph 21.9 mph N/A   Overcast
5:48 AM 71.6 °F - 69.8 °F 94% 29.82 in 10.0 mi South 11.5 mph 19.6 mph N/A   Overcast
5:56 AM 71.1 °F - 70.0 °F 96% 29.80 in 10.0 mi South 11.5 mph 17.3 mph N/A   Overcast
6:39 AM 71.6 °F - 69.8 °F 94% 29.82 in 10.0 mi South 9.2 mph - N/A   Overcast
6:56 AM 71.1 °F - 70.0 °F 96% 29.81 in 10.0 mi SSE 10.4 mph - N/A   Overcast
7:49 AM 71.6 °F - - N/A% 29.83 in 10.0 mi South 11.5 mph 16.1 mph N/A   Overcast
7:56 AM 72.0 °F - - N/A% 29.81 in 10.0 mi South 9.2 mph - N/A   Overcast
8:03 AM 71.6 °F - - N/A% 29.82 in 10.0 mi South 6.9 mph - N/A   Overcast
8:31 AM 71.6 °F - 69.8 °F 94% 29.82 in 10.0 mi South 11.5 mph - N/A   Overcast
8:56 AM 72.0 °F - 70.0 °F 93% 29.81 in 10.0 mi South 11.5 mph 19.6 mph N/A   Overcast
9:27 AM 71.6 °F - 71.6 °F 100% 29.82 in 10.0 mi South 8.1 mph - 0.02 in Rain , Thunderstorm Light Thunderstorms and Rain
9:35 AM 71.6 °F - 71.6 °F 100% 29.82 in 10.0 mi South 9.2 mph - 0.02 in Thunderstorm Thunderstorm
9:46 AM 71.6 °F - 71.6 °F 100% 29.82 in 10.0 mi South 12.7 mph - 0.02 in   Overcast
9:56 AM 72.0 °F - 71.1 °F 97% 29.81 in 10.0 mi South 9.2 mph - 0.02 in   Overcast
10:56 AM 73.0 °F - 72.0 °F 96% 29.78 in 10.0 mi South 11.5 mph 17.3 mph N/A   Overcast
11:52 AM 77.0 °F - 71.6 °F 83% 29.77 in 10.0 mi South 16.1 mph 24.2 mph N/A   Overcast
11:56 AM 77.0 °F - 72.0 °F 84% 29.75 in 10.0 mi South 15.0 mph 25.3 mph N/A   Overcast
12:56 PM 77.0 °F - 71.1 °F 82% 29.76 in 10.0 mi SSW 12.7 mph 23.0 mph N/A   Overcast
1:52 PM 78.8 °F - 71.6 °F 78% 29.75 in 10.0 mi South 18.4 mph 29.9 mph N/A   Overcast
1:56 PM 80.1 °F 83.8 °F 72.0 °F 76% 29.73 in 10.0 mi South 20.7 mph 29.9 mph N/A   Overcast
2:10 PM 78.8 °F - 71.6 °F 78% 29.76 in 10.0 mi SSW 15.0 mph 28.8 mph N/A   Overcast
2:56 PM 80.1 °F 83.8 °F 72.0 °F 76% 29.74 in 10.0 mi South 16.1 mph 25.3 mph N/A   Overcast
3:08 PM 80.6 °F 84.6 °F 71.6 °F 74% 29.75 in 10.0 mi South 17.3 mph 24.2 mph N/A   Mostly Cloudy
3:56 PM 81.0 °F 85.2 °F 72.0 °F 74% 29.74 in 10.0 mi SSW 10.4 mph 20.7 mph N/A   Mostly Cloudy
4:56 PM 80.1 °F 83.8 °F 72.0 °F 76% 29.74 in 10.0 mi SSW 11.5 mph 17.3 mph N/A   Mostly Cloudy
5:56 PM 80.1 °F 83.8 °F 72.0 °F 76% 29.75 in 10.0 mi SSW 12.7 mph 18.4 mph N/A   Partly Cloudy
6:56 PM 77.0 °F - 71.1 °F 82% 29.75 in 10.0 mi SSW 9.2 mph - N/A   Clear
7:56 PM 75.0 °F - 71.1 °F 87% 29.77 in 10.0 mi SSW 5.8 mph - N/A   Partly Cloudy
8:56 PM 73.9 °F - 71.1 °F 91% 29.80 in 10.0 mi SW 6.9 mph - N/A   Mostly Cloudy
9:56 PM 72.0 °F - 69.1 °F 91% 29.82 in 10.0 mi West 6.9 mph - N/A   Partly Cloudy
10:56 PM 71.1 °F - 63.0 °F 75% 29.86 in 10.0 mi WNW 10.4 mph - N/A   Mostly Cloudy
11:56 PM 66.9 °F - 61.0 °F 81% 29.87 in 10.0 mi West 6.9 mph - N/A   Scattered Clouds